Location: Bothwell
(42.3833°S, 147.0000°E)
Time: 01:01:40
(UTC+10:00)

AIST 2D - Visible Passes

Search period start: 01 October 2022 23:00
Search period end: 12 October 2022 00:00
Orbit: 427 x 442 km, 97.0° (Epoch: 01 October)

Date Brightness Start Highest point End Pass type
(mag) Time Alt. Az. Time Alt. Az. Time Alt. Az.
02 Oct ? 21:42:20 18° S 21:42:20 18° S 21:43:24 10° S visible
03 Oct ? 21:02:18 13° SE 21:02:18 13° SE 21:03:02 10° SSE visible
03 Oct ? 22:35:37 12° SW 22:35:37 12° SW 22:35:55 10° SW visible
04 Oct ? 21:55:33 20° S 21:55:33 20° S 21:56:45 10° S visible
05 Oct ? 21:15:27 18° SSE 21:15:27 18° SSE 21:16:42 10° SSE visible
06 Oct ? 22:08:39 20° SSW 22:08:39 20° SSW 22:09:53 10° SSW visible
07 Oct ? 21:28:29 23° SSE 21:28:29 23° SSE 21:30:04 10° S visible
08 Oct ? 20:48:18 12° SE 20:48:18 12° SE 20:48:58 10° SE visible
08 Oct ? 22:21:37 19° SW 22:21:37 19° SW 22:22:49 10° SSW visible
09 Oct ? 21:41:24 28° S 21:41:24 28° S 21:43:12 10° S visible
10 Oct ? 21:01:09 16° SE 21:01:09 16° SE 21:02:38 10° SSE visible
10 Oct ? 22:34:28 16° SW 22:34:28 16° SW 22:35:30 10° SW visible
11 Oct ? 21:54:12 31° S 21:54:12 31° S 21:56:08 10° S visible
